Regional Weather Roundup
Issued by NWS

Home | Current Version | Previous Version | Graphics & Text | Print | Product List | Glossary On
Versions: 1 2 3 4 5 6 7 8 9 10 11 12 13 14 15 16 17 18 19 20 21 22 23 24 25 26 27 28 29 30 31 32 33 34 35 36 37 38 39 40 41 42 43 44 45 46 47 48 49 50
000
ASUS43 KLMK 231002
RWRKY
KENTUCKY REGIONAL WEATHER ROUNDUP
NATIONAL WEATHER SERVICE LOUISVILLE KY
600 AM EDT TUE SEP 23 2014

NOTE "FAIR" INDICATES FEW OR NO CLOUDS BELOW 12,000 FEET
WITH NO SIGNIFICANT WEATHER AND/OR OBSTRUCTIONS TO VISIBILITY.

KYZ001>023-026-027-061>063-070>075-231100-
WESTERN AND SOUTH CENTRAL KENTUCKY

CITY           SKY/WX    TMP DP  RH WIND       PRES   REMARKS
PADUCAH        CLEAR     48  44  86 CALM      30.26R
HENDERSON      CLEAR     43  39  87 CALM      30.28S
OWENSBORO      CLEAR     47  45  93 CALM      30.28S
HOPKINSVILLE   CLEAR     48  44  87 NE5       30.25S
BOWLING GREEN  CLEAR    N/A N/A N/A CALM      30.26S
GLASGOW        CLEAR     45  45  99 CALM      30.25S
$$

KYZ024-025-028>034-038-045-046-053-231100-
NORTH CENTRAL KENTUCKY

CITY           SKY/WX    TMP DP  RH WIND       PRES   REMARKS
LOUISVILLE/SDF CLEAR     51  45  79 CALM      30.28S
LOUISVILLE/LOU CLEAR     48  44  86 CALM      30.29S
FORT KNOX      CLEAR     45  42  90 E2        30.26S
$$

KYZ035>037-039>044-047>052-055>060-089>105-231100-
NORTHEAST KENTUCKY

CITY           SKY/WX    TMP DP  RH WIND       PRES   REMARKS
LEXINGTON      CLEAR     49  42  77 E5        30.29R
COVINGTON      CLEAR     49  44  83 CALM      30.30R
FRANKFORT      CLEAR     42  40  92 CALM      30.28R
$$

KYZ054-064>069-076>088-106>120-231100-
SOUTHEAST KENTUCKY

CITY           SKY/WX    TMP DP  RH WIND       PRES   REMARKS
JACKSON        CLEAR     49  44  83 CALM      30.27S
LONDON         CLEAR     48  45  89 N3        30.27S
SOMERSET       CLEAR     45  45 100 CALM      30.28S
MIDDLESBORO    FOG       48  48 100 CALM      30.28R VSB 1/4
MONTICELLO     SUNNY     43  42  96 CALM      30.28S
$$



USA.gov is the U.S. government's official web portal to all federal, state and local government web resources and services.